Regional Weather Roundup
Issued by NWS Newport/Morehead, NC

Current Version | Previous Version | Text Only | Print | Product List | Glossary Off
Versions: 1 2 3 4 5 6 7 8 9 10 11 12 13 14 15 16 17 18 19 20 21 22 23 24 25 26 27 28 29 30 31 32 33 34 35 36 37 38 39 40 41 42 43 44 45 46 47 48 49 50

000
ASUS42 KMHX 041912
RWRMHX
WEATHER ROUNDUP FOR EASTERN NORTH CAROLINA
NATIONAL WEATHER SERVICE NEWPORT/MOREHEAD CITY NC
300 PM EDT MON MAY 04 2015

NOTE: "FAIR" INDICATES FEW OR NO CLOUDS BELOW 12,000 FEET
WITH NO SIGNIFICANT WEATHER AND/OR OBSTRUCTIONS TO VISIBILITY

NCZ015>017-031-032-045>047-102-103-042000-
NORTH COAST

CITY           SKY/WX    TMP DP  RH WIND       PRES   REMARKS
EDENTON        MOSUNNY   80  49  33 S8        30.30F
ELIZABETH CITY SUNNY     80  49  33 S13       30.29F
KITTY HAWK     CLEAR     76  55  47 E5        30.30F
MANTEO         CLOUDY    73  58  59 S13       30.31F

$$

NCZ045>047-081-094-103-104-042000-
CENTRAL COAST

CITY           SKY/WX    TMP DP  RH WIND       PRES   REMARKS
FRISCO         SUNNY     70  59  68 S7        30.34F
SWANQUARTER      N/A     79 N/A N/A S10       30.30S

$$

NCZ095-097-098-100-101-042000-
SOUTHERN COAST

CITY           SKY/WX    TMP DP  RH WIND       PRES   REMARKS
BEAUFORT       SUNNY     76  53  44 S10       30.34F
CEDAR ISLAND     N/A     79 N/A N/A S9G17     30.36F
JACKSONVILLE   SUNNY     78  51  38 S14       30.32F
PINEY ISLAND   MOCLDY   N/A N/A N/A S10G17    30.33S
WILMINGTON     SUNNY     77  55  46 SE13G20   30.32F


$$

NCZ011>013-027>030-043-044-078>080-089-090>093-098-042000-
COASTAL PLAIN

CITY           SKY/WX    TMP DP  RH WIND       PRES   REMARKS
AHOSKIE        MOSUNNY   78  49  36 S9        30.29S
CLINTON        MOSUNNY   81  52  36 S5        30.31F
ELIZABETHTOWN  PTSUNNY   81  47  31 SW6       30.31F
GOLDSBORO      MOSUNNY   80  48  33 SW5       30.28F
GREENVILLE     MOSUNNY   81  46  30 S10       30.31S
HAVELOCK       SUNNY     79  48  33 SW10      30.33F
KENANSVILLE    MOSUNNY   78  44  29 SW3       30.32F
KINSTON        MOSUNNY   81  43  26 SW7G16    30.31F
NEW BERN       SUNNY     81  45  28 SE12      30.32F
RICHLANDS      CLOUDY    82  46  28 E8        30.32S
ROCKY MOUNT    PTSUNNY   80  50  34 SW7       30.29F
WASHINGTON     SUNNY     79  46  30 S8        30.30F
WHITEVILLE     PTSUNNY   78  54  43 S9        30.31S

$$

AMZ130-135-150-152-154-156-158-170-250-252-270-ANZ085-086-088-633-658-670-042000-
MARINE OBSERVATIONS

STATION/POSITION TIME  TEMP    WIND        PRES    WAVE   SWELL
                       AIR SEA DIR/SP/G            HT/PER HT/PER
                 (UTC) (F)     (DEG/KT/KT) (MB)    (FT/S) (FT/S)
CHESAPEAKE LIGHT 1900   64     170/ 17/ 20 1025.9
64 E VA BEACH    1850   62 62  190/  8/ 10 1026.3    3/10   3/10
DUCK             1800   76 57  280/  7/  8 1025.5
2 E DUCK         1811      61                N/A     2/11   2/11
OREGON INLET     1800   70 64  150/ 11/ 14 1027.0
13E OREGON INLT  1900      56                N/A     3/11   2/11
HATTERAS CG      1800   73 63  180/  4/  7 1027.2
DIAMOND BUOY     1850   72 79  220/  4/  6 1027.9    4/10   3/10
CAPE LOOKOUT     1900   71     160/  7/  8 1027.3
BEAUFORT LAB     1800   70 66  180/  9/ 11 1027.0
27 SE WRIGHTSVLE 1800   69 72  140/  4/  6   N/A
5 SE WRIGHTSVLE  1808   71 69  160/  6/ 10 1027.8
225 S CAPE HAT   1850   69 70   80/ 14/ 16 1027.1    5/10   3/10
41 SE CHARLESTON 1850   73 74   70/ 12/ 14 1026.6    3/10   2/10

$$



USA.gov is the U.S. government's official web portal to all federal, state and local government web resources and services.